Location: Newark
(44.8699°N, 13.8438°E)
Time: 05:26:03
(UTC+00:00)

Envisat - Pass Details

Date: 24 September 2019
Orbit: 764 x 766 km, 98.1° (Epoch: 23 October)

Event Time Altitude Azimuth Distance (km) Brightness Sun altitude
Rises 18:34:44 0° 213° (SSW) 3,221 6.4 -17.5°
Reaches altitude 10° 18:38:02 10° 236° (SW) 2,301 6.0 -18.1°
Maximum altitude 18:40:56 15° 271° (W) 1,965 6.1 -18.6°
Drops below altitude 10° 18:43:51 10° 306° (NW) 2,311 6.6 -19.1°
Sets 18:47:11 0° 329° (NNW) 3,243 7.0 -19.6°
